Simultaneous Nadir Overpasses (SNOs) Predictions

Prediction of SNOs between GOES-16 and NPP Satellite Orbit:

Table of predicted SNOs for the next 14.0 days since TLE Epoch: 9/21/2024
Index Date Time (GOES-16) GOES-16 Lat,Lon NPP Lat,Lon Distance(km) Time Diff (sec)
1 09/22/2024 06:35:51 0.06, -75.20 0.70, -78.00 319.65 80
2 09/23/2024 06:19:44 0.06, -75.20 -0.32, -73.46 197.97 80
3 09/24/2024 18:38:57 -0.06, -75.22 -0.86, -78.75 403.38 80
4 09/25/2024 18:22:51 -0.05, -75.22 0.17, -74.22 114.62 80
5 09/27/2024 06:41:55 0.04, -75.23 1.02, -79.47 484.37 80
6 09/28/2024 06:23:09 0.04, -75.24 -0.01, -74.93 34.24 80
7 09/30/2024 18:26:16 -0.03, -75.29 -0.10, -75.70 46.25 80
8 10/01/2024 18:10:08 -0.03, -75.30 0.88, -71.15 473.32 80
9 10/03/2024 06:31:52 0.03, -75.33 0.30, -76.40 123.55 80
10 10/04/2024 06:10:26 0.04, -75.35 -0.75, -71.87 396.27 80
